Weather History for KMSL - March, 2013

Change the Weather History Date:

Monday, March 4, 2013

  Actual Average Record
Temperature  
Mean Temperature 48 °F 50 °F  
Max Temperature 65 °F 61 °F 82 °F (1976)
Min Temperature 31 °F 39 °F 12 °F (1943)
Degree Days  
Heating Degree Days 17 15  
Month to date heating degree days 103 63  
Since 1 July heating degree days 2319 2598  
Cooling Degree Days 0 0  
Month to date cooling degree days 0 0  
Year to date cooling degree days 7 1  
Moisture  
Dew Point 29 °F    
Average Humidity 52    
Maximum Humidity 78    
Minimum Humidity 25    
Precipitation  
Precipitation 0.00 in 0.16 in 1.57 in (1917)
Month to date precipitation 0.01 0.64  
Year to date precipitation 11.51 9.91  
Snow  
Snow 0.00 in - - ()
Month to date snowfall T  
Since 1 July snowfall T  
Snow Depth 0.00 in    
Sea Level Pressure  
Sea Level Pressure 30.01 in    
Wind  
Wind Speed 8 mph (SSE)    
Max Wind Speed 20 mph    
Max Gust Speed 25 mph    
Visibility 10 miles    
Events      
T = Trace of Precipitation, MM = Missing Value Source: NWS Daily Summary

Daily Weather History Graph

Daily Weather History Graph

Search for Another Location

Airport or City:

Trip Planner

Search our weather history database for the weather conditions in past years. The results will help you decide how hot, cold, wet, or windy it might be!

Date:

Astronomy

Mar. 04, 2013 Rise Set
Actual Time 6:15 AM CST 5:49 PM CST
Civil Twilight 5:50 AM CST 6:14 PM CST
Nautical Twilight 5:20 AM CST 6:43 PM CST
Astronomical Twilight 4:51 AM CST 7:12 PM CST
Moon 12:14 AM CST (3/4) 10:40 AM CST (3/4)
Length of Visible Light 12h 24m
Length of Day
11h 33m
Waning Gibbous, 52% of the Moon is Illuminated
Mar 4
Waning Gibbous
Mar 4
Last Quarter
Mar 11
New
Mar 19
First Quarter
Mar 27
Full

Hourly Weather History & Observations

Time (CST) Temp. Windchill Dew Point Humidity Pressure Visibility Wind Dir Wind Speed Gust Speed Precip Events Conditions
12:53 AM 33.1 °F - 26.1 °F 75% 30.14 in 10.0 mi Calm Calm - N/A   Mostly Cloudy
1:53 AM 33.1 °F - 27.0 °F 78% 30.14 in 10.0 mi Calm Calm - N/A   Mostly Cloudy
2:53 AM 32.0 °F 28.7 °F 27.0 °F 82% 30.13 in 10.0 mi East 3.5 mph - N/A   Clear
3:53 AM 30.9 °F 26.2 °F 23.0 °F 72% 30.12 in 10.0 mi ESE 4.6 mph - N/A   Clear
4:53 AM 32.0 °F 27.5 °F 23.0 °F 69% 30.13 in 10.0 mi ESE 4.6 mph - N/A   Clear
5:53 AM 33.1 °F 30.0 °F 23.0 °F 66% 30.13 in 10.0 mi SE 3.5 mph - N/A   Clear
6:53 AM 33.1 °F 28.7 °F 23.0 °F 66% 30.14 in 10.0 mi SE 4.6 mph - N/A   Clear
7:53 AM 39.9 °F 34.5 °F 25.0 °F 55% 30.14 in 10.0 mi SE 8.1 mph - N/A   Clear
8:53 AM 45.0 °F 38.9 °F 23.0 °F 42% 30.14 in 10.0 mi SSE 12.7 mph - N/A   Clear
9:53 AM 46.9 °F - 23.0 °F 39% 30.12 in 10.0 mi SSE 11.5 mph - N/A   Clear
10:53 AM 53.1 °F - 24.1 °F 32% 30.09 in 10.0 mi SSE 10.4 mph - N/A   Clear
11:53 AM 59.0 °F - 27.0 °F 29% 30.04 in 10.0 mi SSE 10.4 mph - N/A   Clear
12:53 PM 63.0 °F - 27.0 °F 26% 29.97 in 10.0 mi South 11.5 mph 19.6 mph N/A   Clear
1:53 PM 64.0 °F - 28.0 °F 26% 29.94 in 10.0 mi South 10.4 mph 21.9 mph N/A   Clear
2:53 PM 64.0 °F - 28.9 °F 27% 29.91 in 10.0 mi SSE 15.0 mph 24.2 mph N/A   Clear
3:53 PM 64.0 °F - 28.9 °F 27% 29.88 in 10.0 mi South 19.6 mph 25.3 mph N/A   Clear
4:53 PM 63.0 °F - 30.9 °F 30% 29.86 in 10.0 mi South 15.0 mph 20.7 mph N/A   Clear
5:53 PM 60.1 °F - 30.9 °F 33% 29.90 in 10.0 mi South 8.1 mph - N/A   Clear
6:53 PM 55.9 °F - 32.0 °F 40% 29.90 in 10.0 mi SSE 6.9 mph - N/A   Clear
7:53 PM 53.1 °F - 33.1 °F 47% 29.91 in 10.0 mi SSE 6.9 mph - N/A   Clear
8:53 PM 55.9 °F - 34.0 °F 44% 29.92 in 10.0 mi SE 6.9 mph - N/A   Overcast
9:53 PM 59.0 °F - 37.9 °F 46% 29.91 in 10.0 mi South 13.8 mph 21.9 mph N/A   Overcast
10:53 PM 57.9 °F - 42.1 °F 56% 29.89 in 10.0 mi South 15.0 mph - N/A   Overcast
11:53 PM 57.9 °F - 44.1 °F 60% 29.88 in 10.0 mi South 18.4 mph 23.0 mph N/A   Overcast